Wetbulb
54.94 53.28 52.48 50.66 48.78 46.16 46.50 46.34 45.88 46.43 47.79 48.53 47.41 47.32 46.63 46.05 46.47 47.26 49.33 56.60 58.08 58.86 58.50 57.92 56.98 56.46 55.72 55.05 55.07 54.82 55.05 54.97 54.74 54.52 54.12 54.04 53.98 53.87 53.87 53.85 54.20 54.52 55.03
54.69 52.71 50.26 48.38 46.48 45.65 45.71 45.91 45.37 45.64 47.37 47.98 45.88 45.50 45.03 44.58 44.88 45.72 46.75 51.36 56.63 58.14 57.52 56.23 56.20 55.96 55.31 54.51 53.83 53.63 53.73 53.40 53.44 53.36 53.15 53.05 52.74 52.86 52.86 53.15 53.40 53.52 53.94
52.99 50.79 48.65 46.44 46.24 46.34 46.17 45.48 44.96 45.10 46.35 47.82 45.02 43.79 44.15 44.12 44.13 44.40 44.71 46.31 50.36 54.92 54.58 54.47 54.38 54.54 54.57 54.20 53.36 53.08 52.81 52.32 52.23 52.31 52.21 51.92 51.69 51.61 51.61 52.16 52.47 52.67 52.90
52.01 48.53 47.10 46.17 46.37 46.26 45.63 45.12 45.29 44.27 44.97 45.79 43.76 43.41 43.38 43.59 43.44 43.30 43.24 43.79 45.28 46.30 50.84 52.43 52.21 52.83 53.20 53.44 53.28 53.18 52.71 51.99 51.62 51.39 51.18 51.04 50.79 50.87 51.08 51.06 51.32 51.40 51.58
52.81 49.51 47.97 47.03 46.79 46.30 45.65 46.19 43.99 45.22 43.59 42.97 43.57 42.05 41.83 42.04 42.58 44.13 42.51 42.59 44.73 43.66 44.32 50.61 50.15 50.40 51.01 51.85 52.34 52.69 52.38 51.66 51.33 50.98 50.50 50.14 50.14 50.17 50.19 50.23 50.44 50.47 50.66
53.29 51.23 48.59 47.51 47.39 46.22 44.32 44.57 44.37 43.96 43.76 43.42 44.74 41.43 40.22 40.45 41.34 41.60 41.40 42.70 42.37 43.30 42.92 43.63 43.34 44.99 48.48 49.34 50.16 50.98 51.30 51.17 50.43 50.14 49.70 49.56 49.21 49.15 49.13 49.17 49.35 49.66 49.72
54.40 51.97 49.61 47.59 47.28 46.56 45.65 45.11 43.57 43.61 41.74 42.54 40.17 39.28 39.56 38.80 38.79 39.52 40.21 40.80 41.32 42.24 40.89 40.76 40.81 40.84 42.77 46.55 47.33 48.64 49.63 49.56 49.51 49.00 48.35 48.20 48.02 48.06 48.00 48.18 48.47 48.49 48.66
55.11 52.76 50.22 47.47 46.83 46.23 44.35 44.17 44.04 42.07 41.14 43.81 40.06 38.63 35.94 38.17 39.48 38.67 38.45 40.45 39.20 41.37 40.33 39.39 38.91 39.09 37.02 37.97 40.63 44.84 46.67 47.45 47.74 47.41 46.85 46.58 46.79 47.10 47.29 47.40 47.49 47.62 47.74
55.01 53.74 49.93 48.51 46.89 46.83 45.21 44.69 44.02 44.99 41.34 42.68 44.05 39.79 36.28 35.04 37.31 37.89 38.06 37.28 37.26 39.13 39.84 38.53 37.65 38.02 37.23 37.07 38.70 39.82 42.43 43.33 44.73 45.47 45.28 45.47 45.65 45.73 45.70 46.03 46.39 46.74 46.65
54.86 53.14 50.32 48.55 47.46 46.83 45.53 45.14 44.38 43.75 43.64 43.20 42.00 42.41 40.53 39.67 35.41 33.91 37.31 37.17 36.45 37.38 38.18 38.04 35.83 36.82 35.69 33.68 37.99 40.05 39.82 40.37 41.56 43.10 43.67 44.00 44.24 44.12 44.37 44.81 45.22 45.59 45.80
53.67 52.16 51.22 49.21 47.45 46.84 46.26 45.43 44.03 42.07 43.29 44.17 43.53 39.26 38.06 37.53 38.85 36.61 33.11 34.78 36.21 36.91 37.73 37.20 35.17 34.85 34.42 35.25 34.44 38.12 39.17 39.01 39.52 40.39 40.97 41.79 42.24 42.56 42.97 43.40 43.99 44.38 44.52
51.93 50.84 49.62 48.48 48.35 47.08 45.77 45.45 44.70 42.23 40.42 41.70 39.68 39.55 39.14 37.93 36.24 36.44 33.94 33.80 33.77 34.79 37.02 36.73 35.93 34.86 34.65 33.63 37.44 40.22 39.23 38.45 38.27 38.19 38.35 38.99 39.80 40.60 41.23 41.72 42.36 42.67 43.20
50.91 49.75 49.51 48.07 47.32 47.59 46.22 45.54 44.52 42.44 40.55 40.51 40.22 39.28 39.81 38.42 38.51 38.34 37.11 34.40 33.72 34.13 34.96 36.51 36.11 36.20 36.06 33.94 35.68 39.88 39.55 38.31 37.96 37.26 36.59 36.50 37.30 38.00 38.78 39.34 40.23 40.66 41.35
51.96 50.73 49.06 47.65 47.14 47.30 45.95 45.07 43.54 41.29 41.33 40.65 39.52 38.51 38.30 38.14 38.60 37.30 37.29 34.55 32.21 32.74 33.88 34.02 36.26 36.21 35.86 35.61 36.70 40.78 36.28 38.69 38.34 38.15 37.36 35.56 35.39 36.56 37.31 37.69 38.02 38.44 39.31
51.11 49.30 47.98 46.77 45.60 44.85 43.94 42.77 41.34 39.50 39.75 39.12 38.24 37.48 36.94 37.14 37.65 38.18 38.18 37.63 35.68 31.52 32.03 32.76 32.87 35.42 35.40 35.42 36.68 34.56 34.10 39.00 38.73 38.79 38.20 35.64 35.02 36.04 36.50 36.67 36.52 36.62 37.22
49.32 47.54 46.23 44.90 43.85 42.76 41.73 40.86 39.39 39.01 37.91 37.73 37.73 37.13 37.04 37.79 37.93 38.16 37.69 37.27 37.06 34.68 30.33 32.66 32.23 31.39 33.61 35.25 37.31 32.51 33.00 37.24 38.29 38.32 37.80 35.41 35.18 35.38 35.32 35.71 35.29 35.35 35.88
46.85 46.46 45.42 43.54 42.42 41.57 41.30 40.31 39.75 39.58 38.36 38.52 38.53 38.52 37.64 37.74 36.85 36.02 35.95 35.64 35.24 35.01 31.49 30.17 29.10 30.85 31.46 31.91 34.67 31.68 33.21 32.32 33.14 35.35 34.35 33.55 33.10 33.76 33.99 33.53 33.41 33.56 33.97
46.66 46.11 44.59 43.24 42.19 41.88 41.95 41.19 40.29 40.52 38.81 37.67 37.46 37.36 36.32 37.36 35.53 35.51 35.31 34.84 34.31 34.17 32.53 28.81 30.02 29.87 29.47 30.02 30.47 29.57 31.04 31.49 29.82 32.22 31.52 32.14 32.39 31.81 31.34 31.33 31.69 32.22 32.57
45.94 45.65 44.30 42.92 42.25 41.98 41.77 41.36 40.82 39.69 39.04 38.38 37.79 36.78 35.64 35.89 34.83 34.67 34.83 33.99 33.48 33.84 32.85 31.28 29.40 29.51 26.65 27.83 26.64 27.02 26.45 26.26 29.04 29.65 30.06 29.24 29.10 29.08 29.43 29.86 30.51 31.07 31.07
45.41 45.14 44.17 43.28 42.63 41.82 41.41 40.70 40.13 39.26 38.63 38.20 37.68 37.10 35.95 35.77 34.68 34.31 33.98 33.23 32.74 31.22 30.94 30.23 27.67 26.35 26.09 25.85 25.33 23.90 23.42 24.87 24.22 26.62 26.52 26.14 26.43 27.10 27.60 28.45 28.29 29.04 29.60
45.54 45.04 44.00 43.12 42.23 41.36 40.68 39.69 38.60 38.09 37.11 35.36 35.07 34.84 35.02 35.78 36.51 34.62 32.24 30.02 29.73 28.26 28.11 26.96 26.74 25.95 24.78 23.40 22.67 22.60 22.45 22.16 23.18 23.60 22.51 22.95 22.96 22.81 23.57 25.44 25.81 27.36 28.02
44.51 43.94 42.99 41.55 40.33 40.63 38.33 38.10 37.34 36.02 35.21 33.74 32.33 32.29 33.87 35.54 33.41 32.61 32.09 31.51 29.63 28.22 26.23 25.48 24.35 24.13 23.11 22.94 22.95 21.94 20.86 19.32 18.59 23.68 20.50 20.43 22.48 21.50 23.24 23.57 25.77 26.50 26.65
42.40 42.46 41.01 39.72 38.76 38.59 37.60 37.25 36.04 34.93 33.98 32.52 31.61 30.57 29.18 30.41 29.47 28.92 29.41 28.80 28.34 28.66 27.14 26.46 23.66 23.18 22.73 23.39 22.99 21.03 20.09 19.20 18.55 21.51 19.81 18.46 21.39 20.04 22.63 23.40 24.75 25.76 25.79
39.88 39.90 38.27 37.95 37.17 36.06 36.83 36.28 35.18 33.69 31.83 31.15 30.27 29.36 28.55 27.26 27.33 26.59 26.38 25.87 26.04 26.01 26.14 25.86 24.64 24.78 24.46 23.80 23.47 22.73 21.25 19.75 19.83 20.61 21.34 15.14 19.05 19.10 19.98 20.71 23.90 24.65 24.70
38.06 37.52 35.80 34.67 33.54 34.45 35.60 34.62 33.35 30.69 29.20 28.72 28.90 28.52 27.73 26.70 29.32 29.79 25.77 23.69 23.60 24.03 28.44 27.88 27.03 27.24 27.20 26.93 25.08 21.89 17.94 16.54 11.53 16.91 20.07 18.36 15.68 16.22 17.74 17.33 19.30 22.84 23.10
35.83 35.12 33.24 32.77 33.96 33.57 34.82 34.12 31.87 29.98 28.15 28.19 28.38 29.33 29.07 28.04 29.22 28.52 24.77 22.63 19.89 19.22 20.42 19.47 18.99 21.37 22.33 21.63 24.28 21.40 16.98 14.06 12.12 8.50 18.20 14.08 12.58 14.50 9.62 15.52 16.63 17.47 18.60
MSLP
1015.20 1015.71 1016.12 1016.48 1016.92 1017.13 1017.31 1017.71 1018.06 1018.46 1018.96 1019.46 1019.90 1020.24 1020.77 1021.08 1021.26 1021.43 1021.44 1021.31 1021.22 1021.11 1021.29 1021.73 1022.06 1022.28 1022.41 1022.48 1022.59 1022.66 1022.54 1022.55 1022.42 1022.49 1022.49 1022.49 1022.34 1022.11 1022.00 1021.77 1021.36 1021.14 1020.98
1014.60 1015.29 1015.83 1016.36 1016.81 1016.92 1017.27 1017.56 1017.98 1018.55 1019.03 1019.51 1020.21 1020.59 1020.97 1021.35 1021.54 1021.74 1021.83 1021.76 1021.60 1021.50 1021.75 1022.26 1022.43 1022.50 1022.66 1022.87 1023.08 1023.12 1023.07 1023.05 1023.04 1022.88 1022.79 1022.91 1022.99 1022.61 1022.53 1022.25 1021.84 1021.62 1021.46
1014.28 1014.97 1015.64 1016.10 1016.54 1016.88 1017.13 1017.57 1018.08 1018.68 1019.21 1019.61 1020.32 1020.93 1021.26 1021.60 1021.87 1022.06 1022.17 1022.22 1022.24 1022.23 1022.43 1022.68 1022.93 1022.97 1023.05 1023.21 1023.37 1023.47 1023.54 1023.59 1023.49 1023.38 1023.18 1023.24 1023.42 1023.14 1022.95 1022.66 1022.27 1022.15 1021.95
1014.21 1015.04 1015.34 1015.73 1016.19 1016.76 1017.15 1017.64 1018.08 1018.91 1019.51 1019.92 1020.47 1020.97 1021.54 1021.94 1022.21 1022.40 1022.58 1022.73 1022.85 1022.98 1023.10 1023.28 1023.41 1023.49 1023.56 1023.53 1023.64 1023.76 1023.87 1023.94 1023.86 1023.83 1023.65 1023.65 1023.93 1023.59 1023.38 1023.16 1022.78 1022.71 1022.59
1013.50 1014.42 1015.16 1015.31 1015.80 1016.54 1017.14 1017.58 1018.15 1018.47 1019.61 1020.32 1020.78 1021.25 1021.72 1022.16 1022.45 1022.58 1022.84 1023.06 1023.27 1023.55 1023.60 1023.71 1024.03 1024.09 1024.12 1024.09 1024.01 1024.03 1024.12 1024.24 1024.23 1024.20 1024.12 1024.15 1024.33 1024.13 1023.93 1023.66 1023.33 1023.20 1023.15
1012.38 1013.18 1014.33 1014.93 1015.38 1016.07 1016.97 1017.55 1018.07 1018.54 1019.27 1020.13 1020.86 1021.87 1022.14 1022.42 1022.60 1022.84 1023.09 1023.24 1023.54 1023.86 1023.98 1024.20 1024.59 1024.70 1024.68 1024.71 1024.60 1024.49 1024.49 1024.55 1024.70 1024.65 1024.69 1024.72 1024.77 1024.61 1024.42 1024.16 1023.89 1023.74 1023.49
1011.64 1012.25 1013.96 1014.06 1014.82 1015.34 1016.03 1017.01 1017.96 1018.51 1019.50 1020.17 1021.18 1022.52 1022.93 1022.95 1023.10 1023.18 1023.22 1023.51 1023.69 1024.05 1024.29 1024.55 1024.90 1025.15 1025.25 1025.17 1025.21 1025.13 1025.00 1024.96 1025.07 1025.18 1025.26 1025.20 1025.21 1025.07 1024.83 1024.58 1024.41 1024.17 1023.88
1010.68 1011.40 1012.57 1013.10 1014.44 1014.91 1015.70 1016.34 1017.03 1018.38 1018.94 1019.38 1020.30 1021.65 1022.87 1023.39 1023.33 1023.49 1023.54 1023.61 1023.91 1024.23 1024.49 1024.75 1025.08 1025.49 1025.83 1025.90 1025.87 1025.78 1025.72 1025.61 1025.58 1025.65 1025.76 1025.71 1025.60 1025.37 1025.22 1025.07 1024.87 1024.63 1024.39
1009.48 1010.36 1011.65 1012.02 1013.00 1013.79 1014.77 1015.33 1016.06 1016.99 1018.05 1019.05 1018.97 1019.68 1021.64 1022.16 1022.84 1023.52 1023.66 1023.81 1024.14 1024.49 1024.62 1024.76 1025.13 1025.60 1026.01 1026.21 1026.32 1026.39 1026.43 1026.24 1026.11 1026.09 1026.20 1026.11 1025.95 1025.82 1025.63 1025.37 1025.10 1024.88 1024.80
1009.03 1009.67 1010.36 1011.25 1012.41 1013.00 1013.91 1014.57 1015.21 1015.92 1016.77 1018.14 1018.99 1018.92 1019.03 1019.80 1021.74 1023.29 1023.42 1023.75 1024.20 1024.49 1024.69 1024.85 1025.19 1025.72 1026.17 1026.45 1026.58 1026.65 1026.74 1026.68 1026.54 1026.40 1026.44 1026.48 1026.42 1026.30 1026.09 1025.87 1025.62 1025.35 1025.24
1008.00 1008.86 1009.52 1010.35 1011.22 1012.01 1012.94 1013.76 1014.99 1015.37 1015.90 1017.07 1017.74 1018.97 1019.28 1019.54 1020.21 1021.35 1022.78 1023.45 1024.13 1024.49 1024.62 1024.75 1025.25 1025.84 1026.28 1026.57 1026.66 1026.64 1026.77 1026.80 1026.82 1026.71 1026.82 1026.82 1026.78 1026.66 1026.49 1026.30 1026.10 1025.78 1025.57
1007.38 1007.84 1008.63 1009.32 1010.28 1011.29 1012.01 1012.65 1014.02 1014.77 1015.53 1016.35 1017.26 1018.06 1018.55 1019.08 1019.93 1020.67 1021.93 1023.08 1023.81 1024.43 1024.88 1025.02 1025.20 1025.88 1026.38 1026.73 1026.61 1026.61 1026.79 1026.90 1027.00 1027.03 1026.99 1026.92 1026.91 1026.97 1026.84 1026.72 1026.49 1026.24 1025.91
1005.85 1006.73 1007.68 1008.70 1009.59 1010.50 1011.38 1012.21 1013.34 1014.36 1015.08 1016.10 1016.85 1017.69 1018.09 1018.51 1018.87 1019.89 1020.92 1022.39 1023.28 1024.31 1024.93 1025.25 1025.37 1025.81 1026.27 1026.42 1026.53 1026.58 1026.84 1027.01 1027.05 1027.14 1027.14 1027.17 1027.17 1027.30 1027.18 1027.10 1026.86 1026.68 1026.36
1004.08 1005.08 1006.45 1007.57 1008.73 1009.96 1011.17 1011.97 1012.85 1013.94 1014.60 1015.63 1016.66 1017.31 1018.04 1018.58 1018.78 1019.23 1020.12 1021.25 1023.23 1023.92 1024.48 1024.71 1025.03 1025.43 1025.85 1026.21 1026.48 1026.36 1026.78 1026.93 1027.13 1027.12 1027.19 1027.31 1027.37 1027.37 1027.51 1027.40 1027.03 1026.89 1026.61
1004.68 1005.42 1006.16 1007.36 1008.46 1009.67 1010.90 1011.90 1012.81 1013.66 1014.40 1015.56 1016.47 1017.20 1018.16 1019.03 1019.17 1019.44 1019.62 1020.21 1021.60 1023.42 1024.29 1024.51 1024.68 1024.88 1025.44 1025.95 1026.30 1026.47 1026.72 1026.70 1026.85 1026.96 1027.11 1027.33 1027.43 1027.46 1027.39 1027.26 1027.07 1026.99 1026.83
1006.32 1006.02 1006.73 1007.53 1008.67 1009.71 1010.76 1011.64 1012.76 1013.58 1014.43 1015.54 1016.34 1017.62 1017.59 1018.59 1018.48 1019.50 1020.13 1020.43 1020.84 1021.72 1023.47 1023.93 1024.36 1024.68 1025.18 1025.67 1026.20 1026.58 1026.71 1026.75 1026.65 1026.96 1027.20 1027.38 1027.48 1027.59 1027.53 1027.32 1027.16 1027.10 1027.02
1007.31 1007.43 1007.86 1007.80 1008.67 1009.86 1010.84 1011.63 1012.69 1013.63 1014.43 1015.53 1016.46 1016.92 1017.60 1018.31 1019.19 1019.50 1020.36 1020.69 1020.71 1021.59 1022.64 1024.08 1024.08 1024.47 1025.09 1025.67 1026.15 1026.73 1026.85 1027.09 1027.12 1027.29 1027.47 1027.52 1027.65 1027.67 1027.67 1027.57 1027.50 1027.27 1027.13
1007.46 1008.19 1008.86 1008.90 1009.10 1009.96 1010.71 1011.42 1012.45 1013.30 1013.90 1015.01 1016.04 1016.58 1017.77 1018.03 1018.83 1019.60 1019.93 1020.57 1021.33 1021.61 1022.02 1023.27 1024.02 1024.61 1025.11 1025.55 1026.06 1026.61 1026.91 1027.15 1027.28 1027.38 1027.53 1027.54 1027.79 1027.93 1027.86 1027.82 1027.57 1027.41 1027.19
1006.62 1007.86 1008.67 1009.22 1009.65 1009.83 1010.56 1011.14 1011.77 1012.64 1013.41 1014.31 1015.43 1016.39 1017.30 1018.02 1018.86 1019.26 1020.08 1020.74 1021.24 1021.39 1021.53 1022.63 1023.94 1024.54 1025.43 1025.83 1026.47 1027.06 1027.57 1027.70 1027.59 1027.70 1027.72 1027.99 1027.99 1027.93 1028.01 1027.78 1027.57 1027.28 1027.31
1006.34 1007.30 1008.05 1008.86 1009.42 1009.86 1010.39 1011.28 1011.85 1012.70 1013.67 1014.37 1015.34 1016.32 1017.08 1017.51 1018.24 1019.26 1020.07 1020.78 1021.16 1021.35 1021.91 1022.93 1023.91 1024.77 1025.44 1026.18 1026.60 1027.31 1027.78 1027.78 1027.90 1028.01 1028.14 1028.23 1028.22 1028.06 1027.98 1027.82 1027.54 1027.28 1027.14
1006.60 1006.74 1007.59 1008.71 1008.93 1009.81 1010.38 1011.01 1011.88 1012.70 1013.50 1014.67 1015.61 1016.34 1017.13 1017.84 1018.62 1019.38 1020.10 1020.80 1021.30 1021.67 1022.14 1023.30 1024.09 1024.98 1025.74 1026.41 1026.93 1027.59 1028.01 1028.26 1028.22 1028.40 1028.41 1028.43 1028.27 1028.04 1027.84 1027.72 1027.79 1027.43 1027.11
1006.30 1006.92 1007.38 1007.79 1008.94 1009.73 1010.45 1011.02 1011.85 1012.79 1013.65 1014.67 1015.92 1016.84 1017.50 1018.43 1019.21 1019.81 1020.50 1021.10 1021.44 1021.79 1022.74 1023.34 1024.24 1024.98 1025.72 1026.38 1026.82 1027.29 1027.82 1028.45 1028.74 1028.48 1028.25 1027.85 1028.14 1027.98 1027.54 1027.49 1027.34 1026.80 1026.63
1006.49 1006.70 1007.13 1007.35 1008.94 1009.63 1010.25 1011.03 1011.77 1012.82 1013.66 1014.67 1015.73 1016.93 1017.82 1018.74 1019.52 1020.39 1021.06 1021.59 1022.09 1022.19 1022.75 1023.44 1024.16 1024.72 1025.40 1025.88 1026.46 1027.23 1027.71 1028.01 1028.22 1028.21 1028.10 1028.17 1027.74 1027.62 1027.47 1027.11 1026.76 1026.17 1025.92
1006.30 1007.00 1007.31 1007.63 1008.48 1009.76 1010.52 1011.19 1011.97 1013.24 1014.16 1014.93 1015.92 1016.82 1017.60 1019.08 1019.79 1020.56 1021.37 1021.97 1022.59 1023.22 1023.73 1024.01 1024.11 1024.76 1025.24 1025.84 1026.33 1026.68 1027.24 1027.68 1028.05 1028.06 1028.06 1028.09 1027.68 1027.34 1027.11 1026.78 1026.38 1025.93 1025.69
1006.51 1006.57 1007.06 1007.65 1008.44 1009.79 1010.52 1011.33 1012.06 1013.47 1014.53 1015.44 1016.35 1017.28 1017.86 1019.15 1019.90 1020.57 1021.36 1022.36 1023.27 1023.78 1023.98 1024.31 1024.53 1024.58 1025.13 1025.34 1025.88 1026.64 1027.22 1027.89 1028.12 1028.08 1027.69 1028.10 1027.43 1027.06 1027.14 1026.26 1025.94 1025.59 1025.59
1006.30 1006.51 1006.99 1007.94 1008.84 1009.87 1010.52 1011.30 1011.92 1013.45 1014.65 1015.36 1016.64 1017.67 1018.26 1018.98 1020.00 1020.65 1021.63 1022.55 1023.33 1024.24 1024.58 1024.74 1025.51 1025.42 1025.67 1025.81 1025.93 1026.15 1026.85 1027.84 1028.43 1028.06 1027.96 1027.94 1027.96 1027.60 1027.19 1026.30 1026.07 1025.78 1025.82
Wind_Speed
7 5 4 4 4 4 4 4 5 6 8 8 6 9 7 6 6 3 2 8 6 12 14 15 14 14 15 15 15 15 15 16 17 17 18 18 18 18 18 18 18 18 18
8 7 5 5 4 5 4 5 5 6 6 8 7 7 7 5 6 5 3 4 8 10 15 13 13 13 14 14 14 14 15 15 15 16 17 17 17 18 17 18 18 18 19
8 8 6 5 5 4 6 5 4 5 7 6 8 6 6 6 5 6 4 4 6 15 15 13 12 12 13 13 13 13 14 14 14 15 16 16 16 17 17 17 19 19 19
9 7 7 6 5 5 5 5 6 5 5 7 6 6 5 5 5 5 5 4 4 4 10 13 12 12 12 12 12 12 13 13 14 15 16 16 15 16 16 17 18 19 19
10 9 7 7 8 6 5 7 3 7 6 5 6 5 5 5 5 5 5 6 6 5 3 13 13 12 11 11 11 11 12 12 13 14 14 14 14 15 15 16 17 17 17
13 11 8 8 9 7 5 4 7 3 5 7 7 5 3 3 4 4 5 5 5 5 5 6 5 6 12 11 10 10 11 11 11 13 13 13 13 14 15 15 16 16 17
14 13 7 8 8 10 11 10 5 8 3 5 6 4 4 3 2 3 4 4 5 5 6 5 4 3 4 11 10 9 10 10 11 12 12 12 12 13 14 15 15 16 16
16 14 13 11 11 9 9 10 9 4 4 8 5 4 4 0 1 2 2 5 5 4 5 5 6 5 5 4 7 9 9 10 10 10 10 11 11 13 14 14 15 15 15
16 16 13 11 13 11 11 13 11 12 5 5 11 6 4 5 4 2 3 2 6 4 4 6 6 6 5 3 6 7 8 8 8 9 9 10 11 12 12 13 13 14 15
14 15 16 14 13 9 11 11 9 9 7 13 4 1 2 6 5 2 1 3 3 5 6 5 6 5 5 4 8 9 9 8 8 8 8 9 10 11 12 13 13 14 14
16 15 14 14 13 10 11 12 10 7 6 9 8 3 2 3 3 4 4 3 1 1 3 6 6 5 5 4 4 7 9 8 7 7 7 9 10 11 12 12 12 13 14
11 13 13 13 13 12 12 11 10 10 7 6 4 4 4 4 4 4 3 3 5 2 1 2 5 5 4 4 7 10 10 8 6 6 6 7 9 11 12 12 12 12 13
11 14 15 13 10 10 9 10 10 8 8 6 7 4 3 3 4 4 4 3 4 2 2 1 2 4 5 4 4 10 10 8 5 4 4 4 7 8 10 10 11 12 13
14 16 14 12 12 11 8 8 7 6 7 6 7 5 4 3 2 3 5 7 4 2 2 4 2 5 5 5 6 12 5 9 6 7 5 2 2 7 9 10 10 12 13
1 9 12 12 11 12 11 10 8 9 9 8 7 8 7 3 4 4 4 4 6 4 6 4 3 6 6 5 6 5 5 9 4 4 6 3 1 6 7 9 10 10 12
6 9 10 12 12 12 13 12 10 10 12 7 7 9 8 3 6 4 3 3 3 5 4 2 3 3 6 5 7 5 4 4 7 6 5 4 4 7 8 8 7 8 11
3 4 7 13 14 13 13 13 12 13 14 11 8 8 6 6 4 4 3 2 3 3 4 1 2 2 4 5 4 3 4 4 6 12 9 7 6 5 6 7 8 10 11
5 6 6 8 13 14 14 15 14 12 14 12 11 9 9 7 8 6 4 4 4 3 4 5 2 3 3 3 5 6 4 5 4 7 6 6 6 7 8 10 11 11 10
11 10 10 11 12 15 14 13 13 13 13 14 13 11 10 11 8 5 5 5 4 3 3 6 3 2 3 2 4 4 3 3 3 5 5 7 7 7 8 9 9 10 12
11 11 11 12 12 13 13 12 12 12 11 10 10 10 11 10 11 9 7 7 5 5 5 6 3 3 3 3 4 2 2 2 2 2 4 3 6 7 8 7 10 11 12
11 12 11 10 10 10 9 12 11 11 11 11 9 8 7 8 12 11 7 5 6 3 6 4 3 3 2 2 2 2 2 2 1 1 1 1 1 2 2 5 7 10 14
10 10 10 12 11 8 13 17 15 12 12 12 11 9 8 12 13 15 14 10 7 5 4 3 3 4 4 3 3 2 2 1 2 2 1 4 2 3 3 3 10 17 19
9 11 11 12 12 10 20 20 20 11 12 12 12 12 11 9 14 11 15 15 12 10 5 5 5 3 5 5 6 5 4 3 3 2 2 5 2 3 3 6 18 19 15
9 9 9 11 11 7 20 21 19 12 10 12 12 13 13 10 9 11 10 9 7 6 5 3 5 6 6 6 5 4 4 3 1 3 2 3 1 3 3 7 18 15 11
8 10 10 11 12 12 23 23 17 11 11 11 10 11 12 11 16 17 10 9 7 4 7 10 10 11 11 10 6 4 2 2 1 2 1 1 2 5 6 5 4 8 5
6 6 9 8 12 15 24 23 19 10 12 10 10 10 17 13 18 17 9 8 8 4 4 5 3 5 5 3 5 4 4 3 1 2 2 1 2 2 4 2 1 3 7
Wind_Direction
170 163 166 157 167 150 151 148 133 130 129 124 121 126 121 115 107 94 84 90 102 119 113 97 96 91 84 77 71 68 66 63 63 60 57 53 50 49 47 45 45 41 36
171 174 167 171 173 167 160 151 149 137 134 131 123 126 122 112 108 104 90 89 73 84 101 103 95 93 88 81 74 70 67 64 62 62 60 54 50 50 46 45 45 44 41
172 168 172 171 179 175 154 141 125 108 121 125 125 122 124 122 117 110 102 84 70 85 98 100 92 91 89 87 81 76 70 67 64 63 62 57 50 51 47 44 43 39 36
171 172 176 181 169 161 154 147 141 118 128 138 134 136 129 123 119 115 104 93 81 80 105 103 96 91 88 88 87 84 78 72 68 65 62 58 51 50 48 44 44 39 35
175 176 188 186 163 161 166 159 135 139 138 129 135 124 129 133 137 132 124 114 112 105 100 109 99 92 87 84 83 82 79 75 70 67 63 59 53 50 47 45 43 40 35
180 178 186 180 168 159 149 150 155 107 133 144 130 103 94 125 136 141 138 128 122 119 109 95 99 99 95 86 78 79 77 75 69 65 61 58 52 48 45 42 41 38 35
184 175 195 166 175 174 171 166 142 145 108 123 107 73 43 59 117 155 148 144 142 140 123 119 115 88 89 94 82 73 73 72 71 65 59 56 51 46 42 40 37 35 33
184 185 185 173 181 167 164 167 160 139 122 171 136 128 138 71 133 182 152 167 159 148 137 130 123 113 98 87 89 72 69 64 68 67 62 57 52 47 42 37 35 32 28
186 188 186 176 176 175 178 175 165 172 146 196 176 142 140 193 127 140 189 195 157 164 154 144 132 128 124 107 86 85 85 65 64 66 58 53 48 43 39 36 34 31 25
191 187 179 173 180 179 178 181 174 168 147 181 197 68 96 140 157 151 177 163 176 176 173 166 144 140 140 132 139 127 105 79 67 69 58 52 47 39 34 31 29 28 22
179 182 186 180 176 178 177 172 176 162 166 172 177 154 112 82 99 136 162 153 103 188 181 162 151 149 153 164 148 144 131 112 85 78 66 53 42 33 30 28 25 24 19
180 180 179 177 180 179 172 167 172 164 152 148 137 151 156 157 160 139 117 121 150 147 173 161 148 154 162 169 173 166 150 137 119 105 88 58 41 30 26 22 22 18 19
180 183 179 177 176 173 165 155 157 159 150 150 159 153 139 145 130 116 105 123 143 120 145 203 142 150 174 179 197 166 164 163 152 140 111 65 42 26 20 16 16 10 11
191 176 174 163 155 155 155 148 141 135 135 131 132 122 120 112 108 132 135 139 98 117 162 178 144 179 177 175 202 173 169 182 199 193 188 171 40 13 8 6 5 1 3
276 165 158 150 142 139 140 138 132 129 124 121 112 114 112 109 96 84 106 120 131 143 202 207 163 175 168 171 200 154 183 199 192 163 177 168 22 346 357 350 350 352 352
202 156 150 137 134 134 134 129 126 124 117 114 121 134 118 123 101 113 111 163 161 134 147 130 207 150 162 166 191 164 189 169 113 114 113 95 39 2 343 345 1 354 349
112 145 163 143 137 138 139 130 132 136 130 138 142 132 132 137 149 112 139 125 92 118 122 168 108 132 122 145 143 136 103 90 93 89 74 46 19 10 37 21 358 338 332
137 150 154 149 145 147 151 150 156 163 149 152 156 146 160 146 134 153 130 120 142 167 124 132 114 106 99 125 130 112 117 112 95 69 50 61 58 32 2 344 334 330 334
158 160 160 166 168 167 167 167 164 162 161 160 159 158 157 156 157 129 136 143 157 142 117 136 136 111 108 108 94 89 88 57 61 33 78 51 32 1 347 339 335 339 332
162 167 177 179 177 169 168 167 162 161 160 155 157 164 165 162 156 155 162 166 150 129 115 124 97 103 102 72 85 130 160 62 36 57 45 20 5 351 346 344 341 334 329
186 177 168 176 170 171 170 163 159 155 144 135 130 126 131 149 164 166 153 140 132 134 119 128 110 83 108 122 148 115 91 7 358 84 308 308 291 262 274 323 320 323 325
178 171 174 160 161 171 169 160 153 151 144 139 134 120 130 141 128 113 111 107 122 119 116 116 116 155 134 125 125 114 110 142 246 183 356 293 271 277 287 277 306 316 313
172 174 166 154 169 172 162 159 148 146 144 142 139 132 121 121 114 115 107 99 93 95 108 138 139 149 144 156 139 153 165 174 207 266 163 283 206 276 291 310 307 309 312
165 173 166 160 154 159 158 153 141 136 131 133 138 140 131 129 127 121 118 109 101 100 106 102 117 130 119 140 146 151 163 164 273 269 205 240 268 290 271 287 294 308 305
175 170 165 153 147 151 156 150 134 128 126 127 129 130 128 131 143 137 123 124 114 86 155 140 130 135 145 152 158 131 149 137 282 251 114 250 287 304 279 276 277 299 305
173 151 140 149 153 155 155 149 133 133 134 134 128 132 139 137 148 142 135 141 139 155 125 83 78 94 98 128 131 132 143 141 175 356 254 334 309 349 319 292 278 312 300